Showing default

COSMOS 2237, 22565

Orbit data source: Space-Track

COSMOS 2237, 22565 is a payload satellite owned by GRU (CIS) in LEO that was launched on Fri, 26 Mar 1993 UTC via a ZENIT-2 launch vehicle from the Tyuratam Missile And Space Complex (TTMTR). Payload-class satellites include a variety of spacecraft equipped with specific instruments for various scientific and technological missions. These include communications satellites like Starlink; space stations such as the ISS; scientific satellites like the Hubble; Earth observation satellites from companies like Planet Labs, Umbra, and HawkEye 360; GPS; miniature CubeSats for education and research; and military/defense satellites.

Loading next visibility...
Identifier
22565, 1993-016A
Orbit
LEO
Country
Flag of CISCIS
Related business
Manufacturer
Yuzhnoe
Mission
Defense Sigint
Bus & Motor
TSELINA-2, Unknown motor
Mass
3,250 kg wet, 3,250 kg dry
Launch date (UTC)
1993-03-26 (33 years ago)
Launch vehicle
ZENIT-2
Launch site
Tyuratam Missile And Space Complex (TTMTR)
Object type
Payload
Rocket body
Debris
Shape & HBR
CYL + 2 PAN + ANT, 7.4 m
Radar Cross Section
Large (>1 m²)

Expand to show TLE details & history
Last TLE update: 14 hours ago

TLE from 14 hours ago
0 COSMOS 2237
1 22565U 93016A   26255.03516711  .00000169  00000-0  11843-3 0  9999
2 22565  70.7624 129.0630 0006118 172.6120 187.5091 14.12387433725612
Epoch: 2026-09-12T00:50Z
TLE epoch observation values (Epoch: 2026-09-12T00:50:38.438Z)
Latitude
-0°
Longitude
125.35289°
Altitude
857.981 km
Speed
7.422 km/s
True Right ascension
08h 36m 15s
True Declination
0° 00' 00"
Sunlit
Object was in daylight at epoch
Visualization orbit readout
Latitude
Unknown
Longitude
Unknown
Altitude
Unknown
Speed
Unknown
Apparent Right ascension
Unknown
Apparent Declination
Unknown
Sunlit
N/A
Visualization observer readout
Local Sidereal Time
07:39:16
Azimuth
Unknown
Elevation
Unknown
Doppler factor
Unknown
Orbital elements
Apogee altitude
853.586 km
Perigee altitude
844.743 km
Semi-major axis
7,227.301 km
Eccentricity
0.00061
Inclination
70.7624°
RAAN
129.063°
Arg. of periapsis
172.612°
True anomaly
187.49995°
Mean anomaly
187.5091°
Eccentric anomaly
187.50452°
Mean motion
3.53247 °/min
Orbital period
101.91 mins
BSTAR
0.00011843
Loading maneuver chart data...
Computing Atmospheric mass density...
Loading historical data...
Loading historical data...
Loading historical data...
Loading historical data...
Loading historical data...
Loading historical data...
Loading historical data...

Documentation

Showing up to 5 results
|